| time (UTC) | temp C | wind direction | speed KPH | gust KPH | rain 1hr cm | rain 24hr cm | rain mn cm | humidity % | barometer mb |
| 20260905010508 | 22 | 75 | 0.0 | 0.0 | 0.00 | 0.13 | 0.00 | 57 | 1005.1 |
| 20260905010014 | 23 | 67 | 0.0 | 1.6 | 0.00 | 0.13 | 0.00 | 57 | 1005.0 |
| 20260905005505 | 23 | 63 | 0.0 | 1.6 | 0.00 | 0.13 | 0.00 | 56 | 1004.9 |
| 20260905005006 | 23 | 67 | 0.0 | 1.6 | 0.00 | 0.13 | 0.00 | 55 | 1004.9 |
| 20260905004508 | 23 | 60 | 0.0 | 1.6 | 0.00 | 0.13 | 0.00 | 54 | 1004.9 |
| 20260905004006 | 23 | 70 | 0.0 | 1.6 | 0.00 | 0.13 | 0.00 | 53 | 1004.8 |
| 20260905003505 | 24 | 47 | 0.0 | 1.6 | 0.00 | 0.13 | 0.00 | 51 | 1004.8 |
| 20260905003013 | 24 | 58 | 0.0 | 1.6 | 0.00 | 0.13 | 0.00 | 49 | 1004.7 |
| 20260905002506 | 25 | 75 | 0.0 | 0.0 | 0.00 | 0.13 | 0.00 | 49 | 1004.7 |
| 20260905002051 | 25 | 75 | 0.0 | 0.0 | 0.00 | 0.13 | 0.00 | 48 | 1004.5 |
| 20260905001548 | 25 | 75 | 0.0 | 0.0 | 0.00 | 0.13 | 0.00 | 47 | 1004.5 |
| 20260905001047 | 25 | 75 | 0.0 | 0.0 | 0.00 | 0.13 | 0.00 | 46 | 1004.4 |
| 20260905000547 | 25 | 75 | 0.0 | 0.0 | 0.00 | 0.13 | 0.00 | 44 | 1004.4 |
| 20260905000047 | 26 | 76 | 0.0 | 0.0 | 0.00 | 0.13 | 0.00 | 44 | 1004.4 |
| 20260904235546 | 26 | 82 | 0.0 | 0.0 | 0.00 | 0.13 | 0.00 | 43 | 1004.4 |
| 20260904235028 | 26 | 82 | 0.0 | 0.0 | 0.00 | 0.13 | 0.00 | 44 | 1004.6 |
| 20260904234536 | 26 | 82 | 0.0 | 0.0 | 0.00 | 0.13 | 0.00 | 43 | 1004.5 |
| 20260904234030 | 26 | 143 | 0.0 | 1.6 | 0.00 | 0.13 | 0.00 | 44 | 1004.6 |
| 20260904233530 | 26 | 169 | 0.0 | 1.6 | 0.00 | 0.13 | 0.00 | 45 | 1004.6 |
| 20260904233027 | 26 | 152 | 0.0 | 1.6 | 0.00 | 0.13 | 0.00 | 45 | 1004.6 |
| 20260904232527 | 26 | 160 | 0.0 | 1.6 | 0.00 | 0.13 | 0.00 | 48 | 1004.7 |
| 20260904232011 | 26 | 138 | 0.0 | 1.6 | 0.00 | 0.13 | 0.00 | 49 | 1004.7 |
| 20260904231507 | 25 | 156 | 0.0 | 1.6 | 0.00 | 0.13 | 0.00 | 52 | 1004.7 |
| 20260904231007 | 25 | 167 | 0.0 | 1.6 | 0.00 | 0.13 | 0.00 | 54 | 1004.7 |
| 20260904230508 | 25 | 232 | 0.0 | 0.0 | 0.00 | 0.13 | 0.00 | 53 | 1004.8 |
| 20260904230008 | 25 | 191 | 0.0 | 1.6 | 0.00 | 0.13 | 0.00 | 53 | 1004.9 |
| 20260904225507 | 24 | 160 | 0.0 | 1.6 | 0.00 | 0.13 | 0.00 | 56 | 1005.0 |
| 20260904225047 | 24 | 219 | 0.0 | 1.6 | 0.00 | 0.13 | 0.00 | 57 | 1005.0 |
| 20260904224553 | 23 | 172 | 0.0 | 1.6 | 0.00 | 0.13 | 0.00 | 57 | 1005.0 |
| 20260904224051 | 23 | 207 | 0.0 | 1.6 | 0.00 | 0.13 | 0.00 | 56 | 1004.9 |
| 20260904223549 | 24 | 169 | 0.0 | 1.6 | 0.00 | 0.13 | 0.00 | 56 | 1005.0 |
| 20260904223045 | 24 | 242 | 0.0 | 1.6 | 0.00 | 0.13 | 0.00 | 56 | 1005.1 |
| 20260904222545 | 24 | 225 | 0.0 | 1.6 | 0.00 | 0.13 | 0.00 | 56 | 1005.2 |
| 20260904222027 | 24 | 166 | 0.0 | 1.6 | 0.00 | 0.13 | 0.00 | 55 | 1005.2 |
| 20260904221528 | 24 | 228 | 0.0 | 1.6 | 0.00 | 0.13 | 0.00 | 55 | 1005.3 |
| 20260904221026 | 25 | 226 | 0.0 | 4.8 | 0.00 | 0.13 | 0.00 | 54 | 1005.3 |
| 20260904220529 | 24 | 163 | 0.0 | 4.8 | 0.00 | 0.13 | 0.00 | 57 | 1005.3 |
| 20260904220039 | 24 | 246 | 0.0 | 1.6 | 0.00 | 0.13 | 0.00 | 54 | 1005.4 |
| 20260904215526 | 25 | 218 | 0.0 | 4.8 | 0.00 | 0.13 | 0.00 | 55 | 1005.3 |
| 20260904215008 | 25 | 201 | 0.0 | 4.8 | 0.00 | 0.33 | 0.00 | 55 | 1005.3 |
| 20260904214514 | 26 | 159 | 0.0 | 9.7 | 0.00 | 0.33 | 0.00 | 55 | 1005.4 |
| 20260904214007 | 26 | 226 | 0.0 | 9.7 | 0.00 | 0.33 | 0.00 | 54 | 1005.5 |
| 20260904213507 | 26 | 39 | 0.0 | 8.0 | 0.00 | 0.33 | 0.00 | 51 | 1005.6 |
| 20260904213006 | 26 | 65 | 0.0 | 8.0 | 0.00 | 0.33 | 0.00 | 50 | 1005.7 |
| 20260904212505 | 26 | 56 | 0.0 | 0.0 | 0.00 | 0.33 | 0.00 | 46 | 1005.6 |
| 20260904212047 | 25 | 57 | 0.0 | 0.0 | 0.00 | 0.33 | 0.00 | 49 | 1005.7 |
| 20260904211604 | 25 | 56 | 0.0 | 0.0 | 0.00 | 0.33 | 0.00 | 49 | 1005.7 |
| 20260904211048 | 26 | 67 | 0.0 | 0.0 | 0.00 | 0.33 | 0.00 | 49 | 1005.6 |
| 20260904210545 | 26 | 141 | 0.0 | 0.0 | 0.00 | 0.33 | 0.00 | 57 | 1005.6 |
| 20260904210048 | 26 | 141 | 0.0 | 0.0 | 0.00 | 0.33 | 0.00 | 53 | 1005.7 |
| 20260904205545 | 26 | 183 | 0.0 | 1.6 | 0.00 | 0.33 | 0.00 | 52 | 1005.8 |
| 20260904205036 | 26 | 134 | 0.0 | 1.6 | 0.00 | 0.33 | 0.00 | 54 | 1006.0 |
| 20260904204533 | 26 | 72 | 0.0 | 0.0 | 0.00 | 0.33 | 0.00 | 50 | 1006.1 |
| 20260904204032 | 26 | 359 | 0.0 | 0.0 | 0.00 | 0.33 | 0.00 | 50 | 1006.0 |
| 20260904203531 | 27 | 348 | 0.0 | 0.0 | 0.00 | 0.33 | 0.00 | 53 | 1006.0 |
| 20260904203043 | 27 | 69 | 0.0 | 0.0 | 0.00 | 0.33 | 0.00 | 49 | 1006.2 |
| 20260904202529 | 27 | 39 | 0.0 | 1.6 | 0.00 | 0.33 | 0.00 | 51 | 1006.3 |
| 20260904202028 | 27 | 70 | 0.0 | 1.6 | 0.00 | 0.33 | 0.00 | 50 | 1006.3 |
| 20260904201527 | 27 | 153 | 0.0 | 1.6 | 0.00 | 0.33 | 0.00 | 51 | 1006.5 |
| 20260904201026 | 26 | 233 | 0.0 | 1.6 | 0.00 | 0.33 | 0.00 | 53 | 1006.6 |
| 20260904200526 | 26 | 350 | 0.0 | 0.0 | 0.00 | 0.33 | 0.00 | 52 | 1006.7 |
| 20260904200025 | 26 | 295 | 0.0 | 1.6 | 0.00 | 0.33 | 0.00 | 51 | 1006.8 |
| 20260904195524 | 26 | 315 | 0.0 | 1.6 | 0.00 | 0.33 | 0.00 | 51 | 1006.9 |
| 20260904195024 | 27 | 67 | 0.0 | 1.6 | 0.00 | 0.33 | 0.00 | 49 | 1006.9 |
| 20260904194524 | 27 | 340 | 0.0 | 1.6 | 0.00 | 0.33 | 0.00 | 53 | 1007.0 |
| 20260904194023 | 26 | 121 | 0.0 | 1.6 | 0.00 | 0.33 | 0.00 | 52 | 1007.0 |
| 20260904193522 | 26 | 111 | 0.0 | 0.0 | 0.00 | 0.33 | 0.00 | 56 | 1007.1 |
| 20260904193019 | 26 | 34 | 0.0 | 1.6 | 0.00 | 0.33 | 0.00 | 54 | 1007.2 |
| 20260904192518 | 26 | 211 | 0.0 | 1.6 | 0.00 | 0.33 | 0.00 | 54 | 1007.2 |
| 20260904192016 | 26 | 260 | 0.0 | 1.6 | 0.00 | 0.33 | 0.00 | 60 | 1007.3 |
| 20260904191515 | 25 | 250 | 0.0 | 1.6 | 0.00 | 0.33 | 0.00 | 54 | 1007.4 |
| 20260904191015 | 25 | 264 | 0.0 | 1.6 | 0.00 | 0.33 | 0.00 | 58 | 1007.5 |
| 20260904190513 | 25 | 243 | 0.0 | 0.0 | 0.00 | 0.33 | 0.00 | 57 | 1007.6 |
| 20260904190012 | 25 | 226 | 0.0 | 1.6 | 0.00 | 0.33 | 0.00 | 61 | 1007.7 |
| 20260904185512 | 25 | 63 | 0.0 | 1.6 | 0.00 | 0.33 | 0.00 | 56 | 1007.8 |
| 20260904185112 | 25 | 34 | 0.0 | 1.6 | 0.00 | 0.33 | 0.00 | 57 | 1007.8 |
| 20260904184600 | 25 | 294 | 0.0 | 0.0 | 0.00 | 0.33 | 0.00 | 60 | 1007.9 |
| 20260904184057 | 25 | 313 | 0.0 | 1.6 | 0.00 | 0.33 | 0.00 | 59 | 1008.0 |
| 20260904183600 | 25 | 250 | 0.0 | 1.6 | 0.00 | 0.33 | 0.00 | 58 | 1008.1 |
| 20260904183116 | 25 | 255 | 0.0 | 0.0 | 0.00 | 0.33 | 0.00 | 58 | 1008.2 |
| 20260904182554 | 25 | 258 | 0.0 | 0.0 | 0.00 | 0.33 | 0.00 | 62 | 1008.2 |
| 20260904182054 | 24 | 256 | 0.0 | 0.0 | 0.00 | 0.33 | 0.00 | 55 | 1008.3 |
| 20260904181552 | 24 | 246 | 0.0 | 0.0 | 0.00 | 0.33 | 0.00 | 58 | 1008.4 |
| 20260904181053 | 24 | 270 | 0.0 | 0.0 | 0.00 | 0.33 | 0.00 | 62 | 1008.6 |
| 20260904180551 | 24 | 79 | 0.0 | 0.0 | 0.00 | 0.33 | 0.00 | 63 | 1008.6 |
| 20260904180112 | 23 | 321 | 0.0 | 0.0 | 0.00 | 0.33 | 0.00 | 63 | 1008.7 |
| 20260904175547 | 23 | 99 | 0.0 | 0.0 | 0.00 | 0.33 | 0.00 | 61 | 1008.8 |
| 20260904175046 | 23 | 46 | 0.0 | 0.0 | 0.00 | 0.33 | 0.00 | 69 | 1008.9 |
| 20260904174555 | 23 | 34 | 0.0 | 0.0 | 0.00 | 0.33 | 0.00 | 66 | 1008.9 |
| 20260904174043 | 23 | 51 | 0.0 | 0.0 | 0.00 | 0.33 | 0.00 | 64 | 1009.0 |
| 20260904173542 | 22 | 34 | 0.0 | 0.0 | 0.00 | 0.33 | 0.00 | 69 | 1009.1 |
| 20260904173044 | 22 | 298 | 0.0 | 0.0 | 0.00 | 0.33 | 0.00 | 69 | 1009.2 |
| 20260904172543 | 22 | 342 | 0.0 | 0.0 | 0.00 | 0.33 | 0.00 | 69 | 1009.3 |
| 20260904172039 | 22 | 239 | 0.0 | 0.0 | 0.00 | 0.33 | 0.00 | 71 | 1009.4 |
| 20260904171540 | 22 | 328 | 0.0 | 0.0 | 0.00 | 0.33 | 0.00 | 68 | 1009.4 |
| 20260904171038 | 22 | 257 | 0.0 | 0.0 | 0.00 | 0.33 | 0.00 | 72 | 1009.5 |
| 20260904170537 | 22 | 257 | 0.0 | 0.0 | 0.00 | 0.33 | 0.00 | 72 | 1009.5 |
| 20260904170044 | 21 | 250 | 0.0 | 1.6 | 0.00 | 0.33 | 0.00 | 73 | 1009.6 |
| 20260904165533 | 21 | 248 | 0.0 | 1.6 | 0.00 | 0.33 | 0.00 | 74 | 1009.7 |
| 20260904165032 | 21 | 262 | 0.0 | 1.6 | 0.00 | 0.33 | 0.00 | 75 | 1009.8 |
| 20260904164518 | 21 | 256 | 0.0 | 1.6 | 0.00 | 0.33 | 0.00 | 74 | 1009.8 |
| 20260904164017 | 21 | 264 | 0.0 | 0.0 | 0.00 | 0.33 | 0.00 | 75 | 1009.8 |
| 20260904163516 | 20 | 264 | 0.0 | 0.0 | 0.00 | 0.33 | 0.00 | 76 | 1009.9 |
| 20260904163015 | 20 | 264 | 0.0 | 0.0 | 0.00 | 0.33 | 0.00 | 77 | 1010.0 |
| 20260904162517 | 20 | 264 | 0.0 | 0.0 | 0.00 | 0.33 | 0.00 | 76 | 1010.1 |
| 20260904162012 | 19 | 264 | 0.0 | 0.0 | 0.00 | 0.33 | 0.00 | 78 | 1010.2 |
| 20260904161511 | 19 | 266 | 0.0 | 0.0 | 0.00 | 0.33 | 0.00 | 79 | 1010.3 |
| 20260904161011 | 18 | 260 | 0.0 | 1.6 | 0.00 | 0.33 | 0.00 | 81 | 1010.3 |
| 20260904160508 | 18 | 236 | 0.0 | 1.6 | 0.00 | 0.33 | 0.00 | 80 | 1010.4 |
| 20260904160007 | 18 | 255 | 0.0 | 0.0 | 0.00 | 0.33 | 0.00 | 82 | 1010.4 |
| 20260904155505 | 18 | 248 | 0.0 | 0.0 | 0.00 | 0.33 | 0.00 | 84 | 1010.4 |
| 20260904155004 | 18 | 285 | 0.0 | 0.0 | 0.00 | 0.33 | 0.33 | 86 | 1010.5 |
| 20260904154503 | 18 | 285 | 0.0 | 0.0 | 0.00 | 0.33 | 0.33 | 85 | 1010.5 |
| 20260904154004 | 18 | 288 | 0.0 | 0.0 | 0.00 | 0.33 | 0.33 | 87 | 1010.5 |
| 20260904153505 | 17 | 256 | 0.0 | 1.6 | 0.00 | 0.33 | 0.33 | 89 | 1010.5 |
| 20260904153003 | 17 | 253 | 0.0 | 1.6 | 0.00 | 0.33 | 0.33 | 87 | 1010.7 |
| 20260904152504 | 17 | 250 | 0.0 | 1.6 | 0.00 | 0.33 | 0.33 | 88 | 1010.6 |
| 20260904152003 | 17 | 257 | 0.0 | 1.6 | 0.00 | 0.33 | 0.33 | 88 | 1010.6 |
| 20260904151503 | 17 | 250 | 0.0 | 1.6 | 0.00 | 0.33 | 0.33 | 88 | 1010.5 |
| 20260904151003 | 17 | 254 | 0.0 | 0.0 | 0.00 | 0.33 | 0.33 | 88 | 1010.5 |
| 20260904150503 | 17 | 255 | 0.0 | 1.6 | 0.00 | 0.33 | 0.33 | 88 | 1010.5 |
| 20260904150008 | 17 | 250 | 0.0 | 1.6 | 0.00 | 0.33 | 0.33 | 88 | 1010.5 |
| 20260904145503 | 16 | 259 | 0.0 | 0.0 | 0.00 | 0.33 | 0.33 | 89 | 1010.4 |
| 20260904145002 | 16 | 256 | 0.0 | 0.0 | 0.00 | 0.33 | 0.33 | 89 | 1010.4 |
| 20260904144558 | 16 | 256 | 0.0 | 0.0 | 0.00 | 0.33 | 0.33 | 90 | 1010.3 |
| 20260904144044 | 16 | 256 | 0.0 | 0.0 | 0.00 | 0.33 | 0.33 | 89 | 1010.2 |
| 20260904143545 | 16 | 256 | 0.0 | 0.0 | 0.00 | 0.33 | 0.33 | 90 | 1010.2 |
| 20260904143051 | 16 | 253 | 0.0 | 0.0 | 0.00 | 0.33 | 0.33 | 89 | 1010.1 |
| 20260904142544 | 16 | 72 | 0.0 | 0.0 | 0.00 | 0.33 | 0.33 | 89 | 1010.1 |
| 20260904142045 | 16 | 72 | 0.0 | 0.0 | 0.00 | 0.33 | 0.33 | 89 | 1010.2 |
| 20260904141534 | 16 | 72 | 0.0 | 0.0 | 0.00 | 0.33 | 0.33 | 89 | 1010.1 |
| 20260904141026 | 16 | 72 | 0.0 | 0.0 | 0.00 | 0.33 | 0.33 | 91 | 1010.1 |
| 20260904140526 | 16 | 72 | 0.0 | 0.0 | 0.00 | 0.33 | 0.33 | 91 | 1010.0 |
| 20260904140045 | 15 | 72 | 0.0 | 0.0 | 0.00 | 0.33 | 0.33 | 91 | 1009.9 |
| 20260904135526 | 15 | 72 | 0.0 | 0.0 | 0.00 | 0.33 | 0.33 | 93 | 1009.9 |
| 20260904135026 | 15 | 72 | 0.0 | 0.0 | 0.00 | 0.33 | 0.33 | 95 | 1009.8 |
| 20260904134508 | 15 | 72 | 0.0 | 0.0 | 0.00 | 0.33 | 0.33 | 97 | 1009.8 |
| 20260904134008 | 13 | 72 | 0.0 | 0.0 | 0.00 | 0.33 | 0.33 | 97 | 1009.9 |
| 20260904133508 | 13 | 72 | 0.0 | 0.0 | 0.00 | 0.33 | 0.33 | 97 | 1009.8 |
| 20260904133011 | 13 | 72 | 0.0 | 0.0 | 0.00 | 0.33 | 0.33 | 96 | 1009.8 |
| 20260904132510 | 13 | 72 | 0.0 | 0.0 | 0.00 | 0.33 | 0.33 | 95 | 1009.8 |
| 20260904132010 | -17 | 0.0 | 0.0 | 0.00 | 0.33 | 0.33 | 1009.7 | ||
| 20260904131546 | -17 | 0.0 | 0.0 | 0.00 | 0.33 | 0.33 | 1009.6 | ||
| 20260904131046 | -17 | 0.0 | 0.0 | 0.00 | 0.33 | 0.33 | 1009.5 | ||
| 20260904130544 | -17 | 0.0 | 0.0 | 0.00 | 0.33 | 0.33 | 1009.4 | ||
| 20260904130044 | -17 | 0.0 | 0.0 | 0.00 | 0.33 | 0.33 | 1009.4 | ||
| 20260904125541 | -17 | 0.0 | 0.0 | 0.00 | 0.33 | 0.33 | 1009.3 | ||
| 20260904125040 | -17 | 0.0 | 0.0 | 0.00 | 0.33 | 0.33 | 1009.2 | ||
| 20260904124522 | -17 | 0.0 | 0.0 | 0.00 | 0.33 | 0.33 | 1009.2 | ||
| 20260904124019 | -17 | 0.0 | 0.0 | 0.00 | 0.33 | 0.33 | 1009.3 | ||
| 20260904123518 | -17 | 0.0 | 0.0 | 0.00 | 0.33 | 0.33 | 1009.3 | ||
| 20260904123017 | -17 | 0.0 | 0.0 | 0.00 | 0.33 | 0.33 | 1009.3 | ||
| 20260904122519 | -17 | 0.0 | 0.0 | 0.00 | 0.33 | 0.33 | 1009.3 | ||
| 20260904122018 | -17 | 0.0 | 0.0 | 0.00 | 0.33 | 0.33 | 1009.2 | ||
| 20260904121617 | -17 | 0.0 | 0.0 | 0.00 | 0.33 | 0.33 | 1009.3 | ||
| 20260904121058 | -17 | 0.0 | 0.0 | 0.00 | 0.33 | 0.33 | 1009.2 | ||
| 20260904120558 | -17 | 0.0 | 0.0 | 0.00 | 0.33 | 0.33 | 1009.2 | ||
| 20260904120107 | -17 | 0.0 | 0.0 | 0.00 | 0.33 | 0.33 | 1009.2 | ||
| 20260904115558 | -17 | 0.0 | 0.0 | 0.00 | 0.33 | 0.33 | 1009.2 | ||
| 20260904115100 | -17 | 0.0 | 0.0 | 0.00 | 0.33 | 0.33 | 1009.3 | ||
| 20260904114601 | -17 | 0.0 | 0.0 | 0.00 | 0.33 | 0.33 | 1009.3 | ||
| 20260904114040 | -17 | 0.0 | 0.0 | 0.00 | 0.33 | 0.33 | 1009.1 | ||
| 20260904113540 | -17 | 0.0 | 0.0 | 0.00 | 0.33 | 0.33 | 1009.2 | ||
| 20260904113038 | -17 | 0.0 | 0.0 | 0.00 | 0.33 | 0.33 | 1009.3 | ||
| 20260904112536 | -17 | 0.0 | 0.0 | 0.00 | 0.33 | 0.33 | 1009.4 | ||
| 20260904112035 | -17 | 0.0 | 0.0 | 0.00 | 0.33 | 0.33 | 1009.2 | ||
| 20260904111534 | -17 | 0.0 | 0.0 | 0.00 | 0.33 | 0.33 | 1009.2 | ||
| 20260904111016 | -17 | 0.0 | 0.0 | 0.00 | 0.33 | 0.33 | 1009.1 | ||
| 20260904110513 | -17 | 0.0 | 0.0 | 0.00 | 0.33 | 0.33 | 1009.2 | ||
| 20260904110012 | -17 | 0.0 | 0.0 | 0.00 | 0.33 | 0.33 | 1009.2 | ||
| 20260904105512 | -17 | 0.0 | 0.0 | 0.00 | 0.33 | 0.33 | 1009.1 | ||
| 20260904105009 | -17 | 0.0 | 0.0 | 0.00 | 0.33 | 0.33 | 1009.0 | ||
| 20260904104508 | -17 | 0.0 | 0.0 | 0.00 | 0.33 | 0.33 | 1008.9 | ||
| 20260904104049 | -17 | 0.0 | 0.0 | 0.00 | 0.33 | 0.33 | 1008.9 | ||
| 20260904103548 | -17 | 0.0 | 0.0 | 0.00 | 0.33 | 0.33 | 1009.1 | ||
| 20260904103046 | -17 | 0.0 | 0.0 | 0.00 | 0.33 | 0.33 | 1009.0 | ||
| 20260904102545 | -17 | 0.0 | 0.0 | 0.00 | 0.33 | 0.33 | 1008.9 | ||
| 20260904102048 | -17 | 0.0 | 0.0 | 0.00 | 0.33 | 0.33 | 1008.8 | ||
| 20260904101542 | -17 | 0.0 | 0.0 | 0.00 | 0.33 | 0.33 | 1008.8 | ||
| 20260904101023 | -17 | 0.0 | 0.0 | 0.00 | 0.33 | 0.33 | 1008.9 | ||
| 20260904100523 | -17 | 0.0 | 0.0 | 0.00 | 0.33 | 0.33 | 1008.9 | ||
| 20260904100020 | -17 | 0.0 | 0.0 | 0.00 | 0.33 | 0.33 | 1008.9 | ||
| 20260904095519 | -17 | 0.0 | 0.0 | 0.00 | 0.33 | 0.33 | 1009.0 | ||
| 20260904095018 | -17 | 0.0 | 0.0 | 0.00 | 0.33 | 0.33 | 1009.1 | ||
| 20260904094531 | 13 | 101 | 0.0 | 1.6 | 0.00 | 0.33 | 0.33 | 96 | 1009.0 |
| 20260904094058 | 13 | 101 | 0.0 | 1.6 | 0.00 | 0.33 | 0.33 | 96 | 1009.1 |
| 20260904093602 | 13 | 101 | 0.0 | 1.6 | 0.00 | 0.33 | 0.33 | 96 | 1008.9 |
| 20260904093058 | 13 | 50 | 0.0 | 1.6 | 0.00 | 0.33 | 0.33 | 97 | 1008.9 |
| 20260904092600 | 13 | 97 | 0.0 | 0.0 | 0.00 | 0.33 | 0.33 | 96 | 1008.9 |
| 20260904092057 | 13 | 94 | 0.0 | 0.0 | 0.00 | 0.33 | 0.33 | 96 | 1008.9 |
| 20260904091557 | 14 | 61 | 0.0 | 3.2 | 0.00 | 0.33 | 0.33 | 96 | 1009.0 |
| 20260904091038 | 14 | 42 | 0.0 | 3.2 | 0.00 | 0.33 | 0.33 | 96 | 1009.0 |
| 20260904090538 | 14 | 59 | 0.0 | 1.6 | 0.00 | 0.33 | 0.33 | 96 | 1009.0 |
| 20260904090039 | 14 | 57 | 0.0 | 0.0 | 0.00 | 0.33 | 0.33 | 96 | 1009.0 |
| 20260904085538 | 14 | 73 | 0.0 | 0.0 | 0.00 | 0.33 | 0.33 | 96 | 1009.0 |
| 20260904085039 | 14 | 73 | 0.0 | 0.0 | 0.00 | 0.33 | 0.33 | 96 | 1009.0 |
| 20260904084538 | 14 | 74 | 0.0 | 0.0 | 0.00 | 0.33 | 0.33 | 96 | 1008.9 |
| 20260904084020 | 14 | 73 | 0.0 | 0.0 | 0.00 | 0.33 | 0.33 | 96 | 1008.9 |
| 20260904083519 | 14 | 72 | 0.0 | 0.0 | 0.00 | 0.33 | 0.33 | 96 | 1008.9 |
| 20260904083019 | 14 | 110 | 0.0 | 0.0 | 0.00 | 0.33 | 0.33 | 96 | 1009.0 |
| 20260904082519 | 14 | 110 | 0.0 | 0.0 | 0.00 | 0.33 | 0.33 | 96 | 1009.0 |
| 20260904082019 | 14 | 110 | 0.0 | 0.0 | 0.00 | 0.33 | 0.33 | 96 | 1008.9 |
| 20260904081519 | 14 | 110 | 0.0 | 0.0 | 0.00 | 0.33 | 0.33 | 96 | 1008.9 |
| 20260904081001 | 14 | 111 | 0.0 | 0.0 | 0.00 | 0.33 | 0.33 | 97 | 1009.0 |
| 20260904080600 | 14 | 111 | 0.0 | 0.0 | 0.00 | 0.33 | 0.33 | 97 | 1009.0 |
| 20260904080501 | 14 | 111 | 0.0 | 0.0 | 0.00 | 0.33 | 0.33 | 97 | 1009.0 |
| 20260904080106 | 14 | 60 | 0.0 | 0.0 | 0.00 | 0.33 | 0.33 | 96 | 1008.9 |
| 20260904075601 | 15 | 60 | 0.0 | 0.0 | 0.00 | 0.33 | 0.33 | 97 | 1008.8 |
| 20260904075059 | 14 | 70 | 0.0 | 0.0 | 0.00 | 0.33 | 0.33 | 96 | 1008.8 |
| 20260904074607 | 14 | 48 | 0.0 | 0.0 | 0.00 | 0.33 | 0.33 | 96 | 1008.8 |
| 20260904074042 | 14 | 48 | 0.0 | 0.0 | 0.00 | 0.33 | 0.33 | 96 | 1009.0 |
| 20260904073542 | 14 | 48 | 0.0 | 0.0 | 0.00 | 0.33 | 0.33 | 96 | 1009.0 |
| 20260904073051 | 15 | 48 | 0.0 | 0.0 | 0.00 | 0.33 | 0.33 | 96 | 1009.1 |
| 20260904072542 | 15 | 48 | 0.0 | 0.0 | 0.00 | 0.33 | 0.33 | 96 | 1009.3 |
| 20260904072042 | 15 | 49 | 0.0 | 1.6 | 0.00 | 0.33 | 0.33 | 97 | 1009.2 |
| 20260904071544 | 15 | 70 | 0.0 | 1.6 | 0.00 | 0.33 | 0.33 | 97 | 1009.2 |
| 20260904071026 | 14 | 256 | 0.0 | 1.6 | 0.00 | 0.33 | 0.33 | 96 | 1009.0 |
| 20260904070523 | 14 | 259 | 0.0 | 1.6 | 0.00 | 0.33 | 0.33 | 96 | 1008.7 |
| 20260904070024 | 15 | 243 | 0.0 | 1.6 | 0.00 | 0.33 | 0.33 | 96 | 1008.8 |
| 20260904065525 | 15 | 179 | 0.0 | 1.6 | 0.00 | 0.33 | 0.33 | 96 | 1009.0 |
| 20260904065022 | 15 | 243 | 0.0 | 0.0 | 0.00 | 0.33 | 0.33 | 96 | 1009.2 |
| 20260904064524 | 15 | 260 | 0.0 | 0.0 | 0.00 | 0.33 | 0.33 | 95 | 1009.4 |
| 20260904064003 | 15 | 249 | 0.0 | 0.0 | 0.00 | 0.33 | 0.33 | 95 | 1009.5 |
| 20260904063502 | 15 | 243 | 0.0 | 0.0 | 0.03 | 0.33 | 0.33 | 95 | 1009.5 |
| 20260904063002 | 15 | 278 | 0.0 | 0.0 | 0.03 | 0.33 | 0.33 | 94 | 1009.6 |
| 20260904062502 | 15 | 314 | 0.0 | 0.0 | 0.03 | 0.33 | 0.33 | 94 | 1009.5 |
| 20260904062001 | 15 | 78 | 0.0 | 0.0 | 0.05 | 0.33 | 0.33 | 93 | 1009.6 |
| 20260904061600 | 15 | 77 | 0.0 | 0.0 | 0.05 | 0.33 | 0.33 | 92 | 1009.7 |
| 20260904061042 | 15 | 77 | 0.0 | 0.0 | 0.05 | 0.33 | 0.33 | 91 | 1010.1 |
| 20260904060543 | 15 | 77 | 0.0 | 0.0 | 0.05 | 0.33 | 0.33 | 90 | 1010.0 |
| 20260904055541 | 15 | 77 | 0.0 | 0.0 | 0.05 | 0.33 | 0.33 | 91 | 1009.9 |
| 20260904055044 | 15 | 78 | 0.0 | 0.0 | 0.05 | 0.33 | 0.33 | 91 | 1009.9 |
| 20260904054550 | 16 | 77 | 0.0 | 0.0 | 0.05 | 0.33 | 0.33 | 90 | 1010.0 |
| 20260904054026 | 16 | 70 | 0.0 | 0.0 | 0.05 | 0.33 | 0.33 | 89 | 1010.2 |
| 20260904053521 | 16 | 61 | 0.0 | 0.0 | 0.05 | 0.30 | 0.30 | 89 | 1010.3 |
| 20260904053022 | 16 | 61 | 0.0 | 1.6 | 0.05 | 0.30 | 0.30 | 87 | 1010.4 |
| 20260904052527 | 16 | 74 | 0.0 | 1.6 | 0.05 | 0.30 | 0.30 | 85 | 1010.6 |
| 20260904052019 | 16 | 77 | 0.0 | 1.6 | 0.03 | 0.28 | 0.28 | 84 | 1010.7 |
| 20260904051519 | 17 | 49 | 0.0 | 3.2 | 0.00 | 0.25 | 0.25 | 81 | 1010.7 |
| 20260904051001 | 17 | 64 | 0.0 | 9.7 | 0.00 | 0.25 | 0.25 | 78 | 1010.6 |
| 20260904050502 | 17 | 169 | 0.0 | 9.7 | 0.00 | 0.25 | 0.25 | 76 | 1010.5 |
| 20260904050001 | 17 | 161 | 0.0 | 3.2 | 0.00 | 0.25 | 0.25 | 78 | 1010.4 |
| 20260904045501 | 17 | 108 | 0.0 | 8.0 | 0.00 | 0.25 | 0.25 | 77 | 1010.3 |
| 20260904045004 | 17 | 37 | 0.0 | 9.7 | 0.00 | 0.25 | 0.25 | 78 | 1010.0 |
| 20260904044501 | 17 | 59 | 1.6 | 9.7 | 0.00 | 0.25 | 0.25 | 79 | 1009.9 |
| 20260904044100 | 17 | 61 | 0.0 | 9.7 | 0.00 | 0.25 | 0.25 | 79 | 1009.9 |
| 20260904043547 | 17 | 165 | 1.6 | 9.7 | 0.00 | 0.25 | 0.25 | 80 | 1009.9 |
| 20260904043043 | 17 | 68 | 1.6 | 8.0 | 0.00 | 0.25 | 0.25 | 80 | 1009.9 |
| 20260904042543 | 17 | 56 | 1.6 | 9.7 | 0.00 | 0.25 | 0.25 | 81 | 1009.8 |
| 20260904042043 | 17 | 72 | 1.6 | 14.5 | 0.00 | 0.25 | 0.25 | 80 | 1009.6 |
| 20260904041544 | 17 | 127 | 1.6 | 19.3 | 0.00 | 0.25 | 0.25 | 81 | 1009.6 |
| 20260904041042 | 17 | 37 | 4.8 | 19.3 | 0.00 | 0.25 | 0.25 | 81 | 1009.4 |
| 20260904040524 | 17 | 48 | 3.2 | 14.5 | 0.00 | 0.25 | 0.25 | 85 | 1009.3 |
| 20260904040038 | 17 | 89 | 0.0 | 3.2 | 0.03 | 0.25 | 0.25 | 87 | 1009.3 |
| 20260904035525 | 17 | 66 | 0.0 | 3.2 | 0.05 | 0.25 | 0.25 | 87 | 1009.1 |
| 20260904035028 | 17 | 146 | 0.0 | 1.6 | 0.05 | 0.25 | 0.25 | 87 | 1008.7 |
| 20260904034524 | 17 | 91 | 0.0 | 3.2 | 0.05 | 0.25 | 0.25 | 88 | 1008.6 |
| 20260904034024 | 17 | 61 | 0.0 | 4.8 | 0.05 | 0.25 | 0.25 | 88 | 1008.5 |
| 20260904033506 | 17 | 70 | 0.0 | 6.4 | 0.05 | 0.25 | 0.25 | 89 | 1008.5 |
| 20260904033006 | 17 | 85 | 0.0 | 6.4 | 0.05 | 0.25 | 0.25 | 89 | 1008.5 |
| 20260904032505 | 17 | 76 | 0.0 | 4.8 | 0.05 | 0.25 | 0.25 | 89 | 1008.4 |
| 20260904032005 | 17 | 107 | 0.0 | 6.4 | 0.05 | 0.25 | 0.25 | 89 | 1008.4 |
| 20260904031505 | 17 | 56 | 0.0 | 6.4 | 0.05 | 0.25 | 0.25 | 88 | 1008.6 |
| 20260904031005 | 18 | 59 | 0.0 | 4.8 | 0.05 | 0.25 | 0.25 | 87 | 1008.6 |
| 20260904030547 | 18 | 67 | 0.0 | 4.8 | 0.05 | 0.25 | 0.25 | 87 | 1008.7 |
| 20260904030047 | 18 | 70 | 0.0 | 1.6 | 0.05 | 0.23 | 0.23 | 85 | 1008.7 |
| 20260904025551 | 19 | 114 | 0.0 | 0.0 | 0.03 | 0.23 | 0.23 | 83 | 1008.5 |
| 20260904025047 | 19 | 114 | 0.0 | 0.0 | 0.00 | 0.20 | 0.20 | 82 | 1008.4 |
| 20260904024553 | 19 | 110 | 0.0 | 0.0 | 0.00 | 0.20 | 0.20 | 81 | 1008.4 |
| 20260904024048 | 19 | 67 | 0.0 | 0.0 | 0.00 | 0.20 | 0.20 | 79 | 1008.4 |
| 20260904023530 | 19 | 67 | 0.0 | 0.0 | 0.00 | 0.20 | 0.20 | 78 | 1008.3 |
| 20260904023036 | 19 | 66 | 0.0 | 0.0 | 0.00 | 0.20 | 0.20 | 79 | 1008.3 |
| 20260904022533 | 19 | 67 | 0.0 | 0.0 | 0.00 | 0.20 | 0.20 | 78 | 1008.3 |
| 20260904022029 | 19 | 66 | 0.0 | 0.0 | 0.00 | 0.20 | 0.20 | 78 | 1008.5 |
| 20260904021543 | 19 | 252 | 0.0 | 0.0 | 0.00 | 0.20 | 0.20 | 78 | 1008.5 |
| 20260904021028 | 19 | 252 | 0.0 | 0.0 | 0.00 | 0.20 | 0.20 | 77 | 1008.1 |
| 20260904020512 | 19 | 247 | 0.0 | 1.6 | 0.00 | 0.20 | 0.20 | 76 | 1008.0 |
| 20260904020012 | 19 | 271 | 0.0 | 1.6 | 0.00 | 0.20 | 0.20 | 76 | 1007.8 |
| 20260904015510 | 19 | 259 | 0.0 | 1.6 | 0.00 | 0.20 | 0.20 | 76 | 1007.8 |
| 20260904015014 | 19 | 236 | 0.0 | 1.6 | 0.00 | 0.20 | 0.20 | 76 | 1007.7 |
| 20260904014511 | 19 | 239 | 0.0 | 1.6 | 0.00 | 0.20 | 0.20 | 76 | 1007.6 |
| 20260904014011 | 19 | 238 | 0.0 | 1.6 | 0.00 | 0.20 | 0.20 | 77 | 1007.5 |
| 20260904013601 | 19 | 236 | 0.0 | 0.0 | 0.00 | 0.20 | 0.20 | 76 | 1007.5 |
| 20260904013122 | 19 | 236 | 0.0 | 1.6 | 0.00 | 0.20 | 0.20 | 75 | 1007.5 |
| 20260904012602 | 20 | 236 | 0.0 | 1.6 | 0.00 | 0.20 | 0.20 | 74 | 1007.5 |
| 20260904012058 | 20 | 236 | 0.0 | 0.0 | 0.00 | 0.20 | 0.20 | 74 | 1007.4 |
| 20260904011557 | 20 | 236 | 0.0 | 0.0 | 0.00 | 0.20 | 0.20 | 73 | 1007.3 |
| 20260904011058 | 20 | 236 | 0.0 | 0.0 | 0.00 | 0.20 | 0.20 | 74 | 1007.3 |